This demonstration page uses our WeatherBlox Daily Observations layout. Learn more.

Left ArrowRight Arrow

39.12711, -84.51439

Hourly Observations for June 20, 2017

Temp ( °F °C ) Dew Point ( °F °C ) Humidity (%) Winds ( mph kmh ) Pressure ( in mb ) Visibility ( mi km ) Precip ( " mm )
12:53 am 00:53 Clear 68 20 57 13.9 68 68 SSE 3 6 29.98 1015 10 16 0.00 0.00
1:53 am 01:53 Clear 63 17.2 58 14.4 84 84 Calm 29.97 1015 10 16 0.00 0.00
2:53 am 02:53 Mostly Clear 69 20.6 56 13.3 63 63 WSW 9 15 29.98 1015 10 16 0.00 0.00
3:53 am 03:53 Clear 66 18.9 56 13.3 70 70 WSW 6 9 29.98 1015 10 16 0.00 0.00
4:53 am 04:53 Clear 63 17.2 58 14.4 84 84 Calm 29.99 1016 10 16 0.00 0.00
5:53 am 05:53 Clear 64 17.8 56 13.3 75 75 VRB 5 7 30.00 1016 10 16 0.00 0.00
6:53 am 06:53 Sunny 64 17.8 57 13.9 78 78 S 5 7 30.02 1017 10 16 0.00 0.00
7:53 am 07:53 Sunny 67 19.4 60 15.6 79 79 Calm 30.02 1017 10 16 0.00 0.00
8:53 am 08:53 Sunny 71 21.7 60 15.6 68 68 SSW 7 11 30.03 1017 10 16 0.00 0.00
9:53 am 09:53 Sunny 74 23.3 57 13.9 56 56 WSW 5 7 30.04 1017 10 16 0.00 0.00
10:53 am 10:53 Sunny 77 25 56 13.3 48 48 W 7 11 30.04 1017 10 16 0.00 0.00
11:53 am 11:53 Sunny 79 26.1 58 14.4 49 49 W 10 17 30.04 1017 10 16 0.00 0.00
12:53 pm 12:53 Mostly Sunny 81 27.2 57 13.9 44 44 W 10 17 30.02 1017 10 16 0.00 0.00
1:53 pm 13:53 Mostly Sunny 82 27.8 58 14.4 44 44 W 9 15 30.01 1016 10 16 0.00 0.00
2:53 pm 14:53 Partly Cloudy 82 27.8 57 13.9 42 42 W 9 15 29.99 1016 10 16 0.00 0.00
3:53 pm 15:53 Mostly Cloudy 82 27.8 56 13.3 41 41 W 13 20 29.98 1015 10 16 0.00 0.00
4:53 pm 16:53 Partly Cloudy 83 28.3 60 15.6 46 46 WSW 12 19 29.97 1015 10 16 0.00 0.00
5:53 pm 17:53 Sunny 81 27.2 58 14.4 45 45 WSW 12 19 29.96 1015 10 16 0.00 0.00
6:53 pm 18:53 Mostly Sunny 82 27.8 56 13.3 41 41 W 9 15 29.95 1014 10 16 0.00 0.00
7:53 pm 19:53 Sunny 79 26.1 58 14.4 49 49 WSW 9 15 29.96 1014 10 16 0.00 0.00
8:53 pm 20:53 Sunny 73 22.8 61 16.1 66 66 S 6 9 29.96 1015 10 16 0.00 0.00
9:53 pm 21:53 Clear 69 20.6 61 16.1 76 76 Calm 29.96 1015 10 16 0.00 0.00
10:53 pm 22:53 Clear 65 18.3 61 16.1 87 87 Calm 29.98 1015 10 16 0.00 0.00
11:53 pm 23:53 Clear 65 18.3 61 16.1 87 87 Calm 29.98 1015 10 16 0.00 0.00

Powered by AerisWeather